Weather History for Jackson, WY

Change the Weather History Date:

Thursday, June 20, 2013

  Actual Average Record
Temperature  
Mean Temperature 47 °F -  
Max Temperature 64 °F 72 °F 85 °F (1959)
Min Temperature 30 °F 39 °F 28 °F (1998)
Degree Days  
Heating Degree Days 18    
Moisture  
Dew Point 26 °F    
Average Humidity 54    
Maximum Humidity 93    
Minimum Humidity 16    
Precipitation  
Precipitation 0.00 in - - ()
Sea Level Pressure  
Sea Level Pressure 30.06 in    
Wind  
Wind Speed 8 mph (SSW)    
Max Wind Speed 17 mph    
Max Gust Speed 26 mph    
Visibility 10 miles    
Events      
Averages and records for this station are not official NWS values.
T = Trace of Precipitation, MM = Missing Value Source: NWS Daily Summary

Daily Weather History Graph

Daily Weather History Graph

Search for Another Location

Airport:

Trip Planner

Search our weather history database for the weather conditions in past years. The results will help you decide how hot, cold, wet, or windy it might be!

Date:

Astronomy

Jun. 20, 2013 Rise Set
Actual Time 5:41 AM MDT 9:07 PM MDT
Civil Twilight 5:05 AM MDT 9:43 PM MDT
Nautical Twilight 4:18 AM MDT 10:30 PM MDT
Astronomical Twilight 3:18 AM MDT 11:30 PM MDT
Moon 6:10 PM MDT (6/20) 3:14 AM MDT (6/20)
Length of Visible Light 16h 38m
Length of Day
15h 26m
Waxing Gibbous, 89% of the Moon is Illuminated
Jun 20
Waxing Gibbous
Jun 23
Full
Jun 29
Last Quarter
Jul 8
New
Jul 15
First Quarter

Hourly Weather History & Observations

Time (MDT) Temp. Windchill Dew Point Humidity Pressure Visibility Wind Dir Wind Speed Gust Speed Precip Events Conditions
12:15 AM 41.0 °F 36.4 °F 26.6 °F 57% 30.05 in 10.0 mi South 6.9 mph - N/A   Clear
12:35 AM 41.0 °F 35.8 °F 28.4 °F 61% 30.06 in 10.0 mi South 8.1 mph - N/A   Scattered Clouds
12:55 AM 42.8 °F 40.1 °F 28.4 °F 57% 30.07 in 10.0 mi SSE 4.6 mph - N/A   Mostly Cloudy
1:35 AM 41.0 °F 34.3 °F 26.6 °F 57% 30.06 in 10.0 mi South 11.5 mph - N/A   Scattered Clouds
1:55 AM 41.0 °F 35.2 °F 26.6 °F 57% 30.06 in 10.0 mi SSE 9.2 mph - N/A   Scattered Clouds
2:15 AM 41.0 °F 35.2 °F 26.6 °F 57% 30.05 in 10.0 mi South 9.2 mph - N/A   Clear
2:35 AM 37.4 °F 34.9 °F 28.4 °F 70% 30.06 in 10.0 mi SW 3.5 mph - N/A   Clear
2:55 AM 37.4 °F 34.9 °F 28.4 °F 70% 30.05 in 10.0 mi South 3.5 mph - N/A   Clear
3:15 AM 37.4 °F 32.8 °F 28.4 °F 70% 30.05 in 10.0 mi South 5.8 mph - N/A   Clear
3:35 AM 35.6 °F 31.7 °F 28.4 °F 75% 30.05 in 10.0 mi SW 4.6 mph - N/A   Clear
3:55 AM 33.8 °F 27.7 °F 26.6 °F 75% 30.04 in 10.0 mi SW 6.9 mph - N/A   Clear
4:15 AM 33.8 °F 26.4 °F 26.6 °F 75% 30.04 in 10.0 mi SW 9.2 mph - N/A   Clear
4:35 AM 32.0 °F 24.8 °F 28.4 °F 87% 30.04 in 10.0 mi SW 8.1 mph - N/A   Clear
4:55 AM 32.0 °F 25.6 °F 28.4 °F 87% 30.04 in 10.0 mi SSW 6.9 mph - N/A   Clear
5:35 AM 30.2 °F 22.6 °F 28.4 °F 93% 30.05 in 10.0 mi SSW 8.1 mph - N/A   Clear
5:55 AM 30.2 °F 24.3 °F 28.4 °F 93% 30.05 in 10.0 mi SSW 5.8 mph - N/A   Clear
6:15 AM 30.2 °F 21.9 °F 28.4 °F 93% 30.06 in 10.0 mi SW 9.2 mph - N/A   Clear
6:35 AM 33.8 °F 29.6 °F 30.2 °F 87% 30.07 in 10.0 mi South 4.6 mph - N/A   Clear
6:51 AM 35.6 °F 30.7 °F 30.2 °F 81% 30.07 in 10.0 mi South 5.8 mph - N/A   Clear
7:53 AM 42.8 °F 41.1 °F 30.2 °F 61% 30.08 in 10.0 mi SW 3.5 mph - N/A   Clear
8:56 AM 48.2 °F - 24.8 °F 40% 30.09 in 10.0 mi SSW 13.8 mph - N/A   Clear
9:53 AM 51.8 °F - 21.2 °F 30% 30.08 in 10.0 mi South 15.0 mph 23.0 mph N/A   Clear
10:52 AM 53.6 °F - 42.8 °F 67% 30.08 in 10.0 mi SSE 13.8 mph 23.0 mph N/A   Partly Cloudy
11:51 AM 55.4 °F - 19.4 °F 25% 30.08 in 10.0 mi SW 15.0 mph 21.9 mph N/A   Clear
12:53 PM 57.2 °F - 21.2 °F 25% 30.07 in 10.0 mi South 5.8 mph 19.6 mph N/A   Clear
1:51 PM 59.0 °F - 21.2 °F 23% 30.06 in 10.0 mi South 11.5 mph 18.4 mph N/A   Clear
2:51 PM 60.8 °F - 17.6 °F 19% 30.05 in 10.0 mi SSW 15.0 mph 20.7 mph N/A   Clear
3:51 PM 64.4 °F - 17.6 °F 16% 30.04 in 10.0 mi South 15.0 mph 21.9 mph N/A   Clear
4:51 PM 64.4 °F - 17.6 °F 16% 30.03 in 10.0 mi South 16.1 mph - N/A   Partly Cloudy
5:52 PM 62.6 °F - 15.8 °F 16% 30.03 in 10.0 mi South 17.3 mph 26.5 mph N/A   Partly Cloudy
6:54 PM 60.8 °F - 21.2 °F 22% 30.03 in 10.0 mi WSW 6.9 mph - N/A   Partly Cloudy
7:53 PM 59.0 °F - 24.8 °F 27% 30.04 in 10.0 mi West 9.2 mph - N/A   Clear
8:54 PM 53.6 °F - 26.6 °F 35% 30.06 in 10.0 mi Calm Calm - N/A   Clear
9:15 PM 53.6 °F - 24.8 °F 33% 30.06 in 10.0 mi West 5.8 mph - N/A   Clear
9:35 PM 51.8 °F - 24.8 °F 35% 30.07 in 10.0 mi Calm Calm - N/A   Clear
9:55 PM 48.2 °F - 26.6 °F 43% 30.08 in 10.0 mi NE 3.5 mph - N/A   Clear
10:15 PM 48.2 °F - 26.6 °F 43% 30.09 in 10.0 mi Calm Calm - N/A   Clear
10:55 PM 46.4 °F 41.1 °F 30.2 °F 53% 30.09 in 10.0 mi North 11.5 mph - N/A   Clear
11:15 PM 44.6 °F 39.2 °F 30.2 °F 57% 30.09 in 10.0 mi NNW 10.4 mph - N/A   Clear
11:35 PM 44.6 °F 39.2 °F 30.2 °F 57% 30.09 in 10.0 mi North 10.4 mph - N/A   Clear
11:55 PM 41.0 °F 39.0 °F 30.2 °F 65% 30.09 in 10.0 mi NE 3.5 mph - N/A   Clear